Home > Weather > Costa Mesa > Past weeks

Flag for USA Past Weather in Costa Mesa, California, USA — Yesterday and Last 2 Weeks

Now
65 °F

Partly sunny.


Feels Like: 65 °F
Forecast: 58 / 66 °F
Wind: 8 mph from South

Location: John Wayne Airport-Orange County Airport

Current Time: May 24, 2016 at 10:46:43 AM

Latest Report: May 24, 2016 at 9:53 AM


Visibility: 10 mi

Pressure: 29.99 "Hg

Humidity: 54%

Dew Point: 48 °F

Location of Costa MesaLocation

Past Weather in Costa Mesa — Graph

°F

Costa Mesa Temperature Yesterday

Maximum temperature yesterday: 68 °F (at 11:53 AM)
Minimum temperature yesterday: 57 °F (at 2:53 AM)
Average temperature yesterday: 62 °F

High & Low Weather Summary for the Past Weeks

 TemperatureHumidityPressure
High72 °F (May 13, 1:53 PM)87% (May 12, 4:53 AM)30.06 "Hg (May 12, 4:53 AM)
Low56 °F (May 22, 4:53 AM)41% (May 22, 1:53 PM)29.83 "Hg (May 20, 4:53 AM)
Average63 °F70%29.95 "Hg
* Reported May 9 9:53 AM — May 24 9:53 AM, Costa Mesa, Weather by CustomWeather, © 2016

Note: Actual official high and low records may vary slightly from our data, if they occured in-between our weather recording intervals... More about our weather records

Advertising

Costa Mesa Weather History for the Previous 24 Hours

Scroll right to see more
 ConditionsComfort  
Time TempWeatherWind HumidityBarometerVisibility
9:53 AM
Tue, May 24
65 °FPartly sunny.8 mph54%29.99 "Hg10 mi
8:53 AM63 °FBroken clouds.6 mph65%29.98 "Hg10 mi
7:53 AM61 °FBroken clouds.6 mph70%29.96 "Hg10 mi
6:53 AM60 °FPartly sunny.5 mph75%29.95 "Hg10 mi
5:53 AM59 °FPassing clouds.3 mph78%29.93 "Hg10 mi
4:53 AM60 °FMostly cloudy.No wind72%29.93 "Hg10 mi
3:53 AM60 °FOvercast.5 mph72%29.92 "Hg10 mi
2:53 AM60 °FPassing clouds.3 mph72%29.92 "Hg10 mi
1:53 AM61 °FMostly cloudy.5 mph67%29.92 "Hg10 mi
12:53 AM61 °FOvercast.3 mph67%29.93 "Hg10 mi
11:53 PM
Mon, May 23
61 °FOvercast.5 mph65%29.93 "Hg10 mi
10:53 PM61 °FPartly cloudy.6 mph67%29.93 "Hg10 mi
9:53 PM63 °FPartly cloudy.7 mph65%29.93 "Hg10 mi
8:53 PM61 °FPassing clouds.6 mph70%29.91 "Hg10 mi
7:53 PM62 °FPartly sunny.8 mph67%29.90 "Hg10 mi
6:53 PM63 °FScattered clouds.9 mph68%29.89 "Hg10 mi
5:53 PM64 °FScattered clouds.12 mph65%29.89 "Hg10 mi
4:53 PM66 °FPassing clouds.15 mph56%29.89 "Hg10 mi
3:53 PM66 °FPassing clouds.14 mph54%29.90 "Hg10 mi
2:53 PM67 °FPassing clouds.13 mph53%29.91 "Hg10 mi
1:53 PM68 °FPassing clouds.15 mph53%29.92 "Hg10 mi
12:53 PM67 °FPassing clouds.16 mph55%29.94 "Hg10 mi
11:53 AM68 °FPassing clouds.15 mph53%29.95 "Hg10 mi
10:53 AM67 °FScattered clouds.15 mph55%29.95 "Hg10 mi
Weather by CustomWeather, © 2016

See weather overviewHow to use our weather pages